Location: Assche-ter-Heiden
(50.9174°N, 4.1574°E)
Time: 12:25:37
(UTC+00:00)

Nadezhda 1 Rocket - Pass Details

Date: 20 January 2020
Orbit: 942 x 1005 km, 83.0° (Epoch: 16 February)

Event Time Altitude Azimuth Distance (km) Brightness Sun altitude
Rises 05:44:41 0° 213° (SSW) 3,604 6.8 -17.0°
Reaches altitude 10° 05:47:21 10° 221° (SW) 2,659 6.0 -16.6°
Maximum altitude 05:52:59 39° 290° (WNW) 1,380 4.3 -15.8°
Drops below altitude 10° 05:58:40 10° 358° (N) 2,675 6.1 -14.9°
Sets 06:01:22 0° 7° (N) 3,629 6.9 -14.5°
